Santa Monica, CA

12:59 AM PDT on August 23, 2017 (GMT -0700)
Santa Monica Municipal

Weather History for KSMO - August, 2017

Change the Weather History Date:

Sunday, August 13, 2017

  Actual Average Record
Temperature  
Mean Temperature 68 °F -  
Max Temperature 75 °F 80 °F 94 °F (1991)
Min Temperature 64 °F 63 °F 54 °F (1949)
Cooling Degree Days 4    
Growing Degree Days 18 (Base 50)    
Moisture  
Dew Point 63 °F    
Average Humidity 81    
Maximum Humidity 90    
Minimum Humidity 68    
Precipitation  
Precipitation 0.00 in - - ()
Sea Level Pressure  
Sea Level Pressure 29.92 in    
Wind  
Wind Speed 4 mph (SW)    
Max Wind Speed 10 mph    
Max Gust Speed -    
Visibility 8 miles    
Events      
Averages and records for this station are not official NWS values.
T = Trace of Precipitation, MM = Missing Value Source: NWS Daily Summary

Daily Weather History Graph

Daily Weather History Graph

Search for Another Location

Airport or City:

Trip Planner

Search our weather history database for the weather conditions in past years. The results will help you decide how hot, cold, wet, or windy it might be!

Date:

Astronomy

Aug. 13, 2017 Rise Set
Actual Time 6:14 AM PDT 7:42 PM PDT
Civil Twilight 5:47 AM PDT 8:08 PM PDT
Nautical Twilight 5:15 AM PDT 8:40 PM PDT
Astronomical Twilight 4:42 AM PDT 9:13 PM PDT
Moon 11:37 PM PDT (8/13) 12:02 PM PDT (8/13)
Length of Visible Light 14h 21m
Length of Day
13h 28m
Waning Gibbous, 64% of the Moon is Illuminated
Aug 13
Waning Gibbous
Aug 14
Last Quarter
Aug 21
New
Aug 29
First Quarter
Sep 6
Full

Hourly Weather History & Observations

Time (PDT) Temp. Dew Point Humidity Pressure Visibility Wind Dir Wind Speed Gust Speed Precip Events Conditions
12:51 AM 66.9 °F 63.0 °F 87% 29.94 in 6.0 mi NE 4.6 mph - N/A   Overcast
1:35 AM 66.9 °F 63.0 °F 87% 29.93 in 6.0 mi Calm Calm - N/A   Overcast
1:51 AM 68.0 °F 63.0 °F 84% 29.92 in 7.0 mi East 4.6 mph - N/A   Overcast
2:51 AM 68.0 °F 63.0 °F 84% 29.91 in 8.0 mi Calm Calm - N/A   Overcast
3:51 AM 68.0 °F 63.0 °F 84% 29.89 in 7.0 mi East 3.5 mph - N/A   Overcast
4:51 AM 68.0 °F 63.0 °F 84% 29.90 in 7.0 mi Calm Calm - N/A   Overcast
5:51 AM 68.0 °F 63.0 °F 84% 29.92 in 8.0 mi South 3.5 mph - N/A   Overcast
6:51 AM 68.0 °F 63.0 °F 84% 29.93 in 6.0 mi East 3.5 mph - N/A   Haze
7:51 AM 68.0 °F 63.0 °F 84% 29.94 in 6.0 mi Calm Calm - N/A   Haze
8:38 AM 69.1 °F 63.0 °F 81% 29.96 in 7.0 mi Calm Calm - N/A   Overcast
8:51 AM 70.0 °F 63.0 °F 78% 29.96 in 7.0 mi Calm Calm - N/A   Overcast
9:49 AM 71.6 °F 62.6 °F 73% 29.96 in 7.0 mi East 3.5 mph - N/A   Scattered Clouds
9:51 AM 72.0 °F 63.0 °F 73% 29.95 in 7.0 mi East 5.8 mph - N/A   Scattered Clouds
10:51 AM 73.9 °F 63.0 °F 68% 29.95 in 8.0 mi SW 6.9 mph - N/A   Clear
11:51 AM 73.0 °F 63.0 °F 71% 29.94 in 8.0 mi WSW 8.1 mph - N/A   Clear
12:51 PM 73.0 °F 63.0 °F 71% 29.93 in 8.0 mi WSW 9.2 mph - N/A   Clear
1:51 PM 73.0 °F 63.0 °F 71% 29.92 in 8.0 mi WSW 10.4 mph - N/A   Clear
2:51 PM 73.0 °F 63.0 °F 71% 29.91 in 7.0 mi SW 10.4 mph - N/A   Clear
3:51 PM 73.0 °F 64.0 °F 73% 29.89 in 8.0 mi WSW 9.2 mph - N/A   Clear
4:51 PM 71.1 °F 63.0 °F 75% 29.88 in 8.0 mi WSW 8.1 mph - N/A   Clear
5:51 PM 71.1 °F 63.0 °F 75% 29.87 in 9.0 mi SW 10.4 mph - N/A   Clear
6:51 PM 69.1 °F 63.0 °F 81% 29.87 in 10.0 mi SW 8.1 mph - N/A   Partly Cloudy
7:24 PM 66.9 °F 63.0 °F 87% 29.88 in 10.0 mi WSW 6.9 mph - N/A   Mostly Cloudy
7:51 PM 66.0 °F 63.0 °F 90% 29.88 in 10.0 mi WSW 6.9 mph - N/A   Mostly Cloudy
8:51 PM 64.9 °F 62.1 °F 90% 29.89 in 10.0 mi WSW 8.1 mph - N/A   Overcast
9:51 PM 64.9 °F 62.1 °F 90% 29.91 in 10.0 mi SW 6.9 mph - N/A   Overcast
10:51 PM 64.9 °F 61.0 °F 87% 29.91 in 10.0 mi SSW 6.9 mph - N/A   Overcast
11:51 PM 64.0 °F 61.0 °F 90% 29.91 in 10.0 mi SW 3.5 mph - N/A   Overcast